• Join FlightAware (Why Join?)
  • Login
  • US Flag 
08:54AM EDT


 

Airport Tracker/Info


-or-


 

Live Flight TrackerFlight Track Log ✈ N589H ✈ 15-Jan-2014 ✈ KPIE - TKPK / SKB

Flight Track Log - Related Links

Times and Time Zones

All times are in EST time to prevent confusion due to time zone crossing. See the N589H flight status page for this flight to view local times or setup timezone preferences in your user account.

Time Position Orientation Groundspeed Altitude Reporting Facility
EST Latitude Longitude Course Direction KTS MPH feet Rate Location/Type
07:42PM 27.9333 -82.7000 270° West 153 176 500  Level Tampa TRACON
07:43PM 27.9333 -82.7167 270° West 169 194 1,700 1,620 Climbing Tampa TRACON
07:45PM 27.8417 -82.7056 174° South 198 228 5,300 1,740 Climbing Miami Center
07:46PM 27.7847 -82.6697 151° Southeast 220 253 7,500 2,100 Climbing Miami Center
07:47PM 27.7361 -82.6297 144° Southeast 220 253 9,600 1,920 Climbing Miami Center
07:48PM 27.6878 -82.5875 142° Southeast 220 253 11,400 1,620 Climbing Miami Center
07:49PM 27.6419 -82.5361 135° Southeast 286 329 12,900 1,560 Climbing Miami Center
07:50PM 27.5942 -82.4750 131° Southeast 275 316 14,600 1,740 Climbing Miami Center
07:51PM 27.5506 -82.4119 128° Southeast 262 302 16,400 1,560 Climbing Miami Center
07:52PM 27.5053 -82.3419 126° Southeast 262 302 17,800 1,800 Climbing Miami Center
07:53PM 27.4642 -82.2700 123° Southeast 279 321 20,000 2,100 Climbing Miami Center
07:54PM 27.4253 -82.2003 122° Southeast 265 305 22,000 1,440 Climbing Miami Center
07:55PM 27.3900 -82.1356 122° Southeast 260 299 22,900 660 Climbing Miami Center
07:56PM 27.3425 -82.0633 127° Southeast 279 321 23,400 600 Climbing Miami Center
07:57PM 27.2872 -81.9767 126° Southeast 306 352 24,200 720 Climbing Miami Center
07:58PM 27.2444 -81.8814 117° Southeast 329 379 24,900 360 Climbing Miami Center
07:59PM 27.1978 -81.7858 119° Southeast 341 392 25,000  Climbing Miami Center
08:00PM 27.1547 -81.6978 119° Southeast 352 405 25,000  Level Miami Center
08:01PM 27.1036 -81.6047 122° Southeast 352 405 25,000  Level Miami Center
08:02PM 27.0506 -81.5022 120° Southeast 346 398 25,000 540 Level Miami Center
08:03PM 27.0056 -81.4097 119° Southeast 346 398 26,100 1,440 Climbing Miami Center
08:04PM 26.9664 -81.3242 117° Southeast 330 380 27,900 1,800 Climbing Miami Center
08:05PM 26.9372 -81.2533 115° Southeast 293 337 29,800 1,560 Climbing Miami Center
08:06PM 26.9022 -81.1728 116° Southeast 266 306 31,100 900 Climbing Miami Center
08:07PM 26.8669 -81.0947 117° Southeast 272 313 31,600 480 Climbing Miami Center
08:08PM 26.8294 -81.0119 117° Southeast 285 328 32,100 360 Climbing Miami Center
08:09PM 26.7903 -80.9197 115° Southeast 305 351 32,400 300 Climbing Miami Center
08:10PM 26.7531 -80.8347 116° Southeast 326 375 32,700 300 Climbing Miami Center
08:11PM 26.7097 -80.7333 116° Southeast 351 404 33,100 360 Climbing Miami Center
08:12PM 26.6583 -80.6222 117° Southeast 358 412 33,500 360 Climbing Miami Center
08:13PM 26.6192 -80.5258 114° Southeast 368 423 33,900 360 Climbing Miami Center
08:14PM 26.5678 -80.4128 117° Southeast 373 429 34,300 240 Climbing Miami Center
08:15PM 26.5261 -80.3139 115° Southeast 373 429 34,400 180 Climbing Miami Center
08:16PM 26.4747 -80.1942 116° Southeast 378 435 34,700 240 Climbing Miami Center
08:17PM 26.4228 -80.0858 118° Southeast 386 444 34,900 180 Climbing Miami Center
08:18PM 26.3772 -79.9758 115° Southeast 391 450 35,100 180 Climbing Miami Center
08:19PM 26.3272 -79.8656 117° Southeast 391 450 35,300 180 Climbing Miami Center
08:20PM 26.2792 -79.7578 116° Southeast 391 450 35,500 120 Climbing Miami Center
08:21PM 26.2372 -79.6594 115° Southeast 391 450 35,600 180 Climbing Miami Center
08:22PM 26.1892 -79.5517 116° Southeast 386 444 35,900 240 Climbing Miami Center
08:23PM 26.1411 -79.4464 117° Southeast 386 444 36,100 180 Climbing Miami Center
08:24PM 26.0928 -79.3392 117° Southeast 386 444 36,300 180 Climbing Miami Center
08:25PM 26.0422 -79.2317 118° Southeast 386 444 36,500 180 Climbing Miami Center
08:26PM 25.9958 -79.1289 117° Southeast 386 444 36,700 180 Climbing Miami Center
08:27PM 25.9494 -79.0264 117° Southeast 381 438 36,900 120 Climbing Miami Center
08:28PM 25.9069 -78.9286 116° Southeast 381 438 37,000  Climbing Miami Center
08:29PM 25.8497 -78.8192 120° Southeast 381 438 37,000  Level Miami Center
08:30PM 25.8053 -78.7100 114° Southeast 381 438 37,000  Level Miami Center
08:31PM 25.7586 -78.6008 115° Southeast 381 438 37,000  Level Miami Center
08:32PM 25.7056 -78.4939 119° Southeast 381 438 37,000  Level Miami Center
08:33PM 25.6544 -78.3872 118° Southeast 392 451 37,000  Level Miami Center
08:34PM 25.6075 -78.2783 116° Southeast 387 445 37,000  Level Miami Center
08:35PM 25.5561 -78.1694 118° Southeast 387 445 37,000  Level Miami Center
08:36PM 25.5069 -78.0608 117° Southeast 387 445 37,000  Level Miami Center
08:37PM 25.4575 -77.9519 117° Southeast 387 445 37,000  Level Miami Center
08:38PM 25.4083 -77.8481 118° Southeast 387 445 37,000  Level Miami Center
08:39PM 25.3586 -77.7394 117° Southeast 387 445 37,000  Level Miami Center
08:40PM 25.3092 -77.6336 117° Southeast 387 445 37,000  Level Miami Center
08:41PM 25.2594 -77.5253 117° Southeast 387 445 37,000  Level Miami Center
08:42PM 25.2058 -77.4056 116° Southeast 387 445 37,000  Level Miami Center
08:43PM 25.1517 -77.2950 118° Southeast 387 445 37,000  Level Miami Center
08:44PM 25.0997 -77.1869 118° Southeast 392 451 37,000  Level Miami Center
08:45PM 25.0478 -77.0789 118° Southeast 392 451 37,000  Level Miami Center
08:46PM 24.9956 -76.9733 119° Southeast 392 451 37,000  Level Miami Center
08:47PM 24.9433 -76.8658 118° Southeast 392 451 37,000  Level Miami Center
08:48PM 24.8931 -76.7558 117° Southeast 392 451 37,000  Level Miami Center
08:49PM 24.8408 -76.6503 119° Southeast 392 451 37,000  Level Miami Center
08:50PM 24.7883 -76.5406 118° Southeast 392 451 37,000  Level Miami Center
08:51PM 24.7358 -76.4308 118° Southeast 392 451 37,000  Level Miami Center
08:52PM 24.6853 -76.3236 117° Southeast 392 451 37,000  Level Miami Center
08:53PM 24.6369 -76.2278 119° Southeast 392 451 37,000  Level Miami Center
08:54PM 24.5797 -76.1117 118° Southeast 392 451 37,000  Level Miami Center
08:55PM 24.5269 -76.0000 117° Southeast 398 458 37,000  Level Miami Center
08:56PM 24.4742 -75.8931 118° Southeast 403 464 37,000  Level Miami Center
08:57PM 24.4211 -75.7839 118° Southeast 403 464 37,000  Level Miami Center
08:58PM 24.3700 -75.6794 118° Southeast 398 458 37,000  Level Miami Center
08:59PM 24.3169 -75.5706 118° Southeast 398 458 37,000  Level Miami Center
09:00PM 24.2658 -75.4661 118° Southeast 398 458 37,000  Level Miami Center
09:01PM 24.2125 -75.3572 118° Southeast 398 458 37,000  Level Miami Center
09:02PM 24.1592 -75.2486 118° Southeast 398 458 37,000  Level Miami Center
09:03PM 24.1078 -75.1447 118° Southeast 398 458 37,000  Level Miami Center
09:04PM 24.0564 -75.0383 118° Southeast 398 458 37,000  Level Miami Center
09:05PM 24.0008 -74.9322 120° Southeast 398 458 37,000  Level Miami Center
09:06PM 23.9492 -74.8239 118° Southeast 398 458 37,000  Level Miami Center
09:07PM 23.8956 -74.7181 119° Southeast 398 458 37,000  Level Miami Center
09:08PM 23.8417 -74.6100 119° Southeast 398 458 37,000  Level Miami Center
09:09PM 23.7878 -74.5042 119° Southeast 398 458 37,000  Level Miami Center
09:10PM 23.7317 -74.3986 120° Southeast 398 458 37,000  Level Miami Center
09:11PM 23.6819 -74.2928 117° Southeast 398 458 37,000  Level Miami Center
09:12PM 23.6386 -74.2075 119° Southeast 398 458 37,000  Level Miami Center
09:13PM 23.5800 -74.0931 119° Southeast 398 458 37,000  Level Miami Center
09:14PM 23.5239 -73.9881 120° Southeast 398 458 37,000  Level Miami Center
09:15PM 23.4736 -73.8828 117° Southeast 398 458 37,000  Level Miami Center
09:16PM 23.4194 -73.7775 119° Southeast 398 458 37,000  Level Miami Center
09:17PM 23.3692 -73.6747 118° Southeast 392 451 37,000  Level Miami Center
09:18PM 23.3147 -73.5697 119° Southeast 392 451 37,000  Level Miami Center
09:19PM 23.2558 -73.4650 121° Southeast 397 457 37,000  Level Miami Center
09:20PM 23.2056 -73.3600 118° Southeast 397 457 37,000  Level Miami Center
09:21PM 23.1489 -73.2578 121° Southeast 390 449 37,000  Level Miami Center
09:22PM 23.0981 -73.1508 117° Southeast 390 449 37,000  Level Miami Center
09:23PM 23.0433 -73.0464 120° Southeast 390 449 37,000  Level Miami Center
09:24PM 22.9947 -72.9417 117° Southeast 384 442 37,000  Level Miami Center
09:25PM 22.9397 -72.8397 120° Southeast 389 448 37,000  Level Miami Center
09:26PM 22.8847 -72.7356 120° Southeast 394 453 37,000  Level Miami Center
09:27PM 22.8317 -72.6292 118° Southeast 389 448 37,000  Level Miami Center
09:28PM 22.7744 -72.5275 121° Southeast 389 448 37,000  Level Miami Center
09:29PM 22.7214 -72.4233 119° Southeast 394 453 37,000  Level Miami Center
09:30PM 22.6700 -72.3150 117° Southeast 394 453 37,000  Level Miami Center
09:31PM 22.6128 -72.2111 121° Southeast 394 453 37,000  Level Miami Center
09:32PM 22.5594 -72.1075 119° Southeast 394 453 37,000  Level Miami Center
09:33PM 22.5039 -72.0039 120° Southeast 394 453 37,000  Level Miami Center
09:34PM 22.4483 -71.9028 121° Southeast 394 453 37,000  Level Miami Center
09:35PM 22.3928 -71.7972 120° Southeast 394 453 37,000  Level Miami Center
09:36PM 22.3372 -71.6983 121° Southeast 394 453 37,000  Level Miami Center
09:37PM 22.2858 -71.5972 119° Southeast 394 453 37,000  Level Miami Center
09:38PM 22.2319 -71.4917 119° Southeast 394 453 37,000  Level Miami Center
09:39PM 22.1783 -71.3908 120° Southeast 389 448 37,000  Level Miami Center
09:40PM 22.1247 -71.2900 120° Southeast 389 448 37,000  Level Miami Center
09:41PM 22.0642 -71.1786 120° Southeast 389 448 37,000  Level Miami Center
09:42PM 22.0103 -71.0778 120° Southeast 389 448 37,000  Level Miami Center
09:43PM 21.9564 -70.9797 121° Southeast 389 448 37,000  Level Miami Center
09:44PM 21.9025 -70.8769 119° Southeast 389 448 37,000  Level Miami Center
09:45PM 21.8506 -70.7811 120° Southeast 389 448 37,000  Level Miami Center
09:46PM 21.7967 -70.6808 120° Southeast 384 442 37,000  Level Miami Center
09:47PM 21.7403 -70.5786 121° Southeast 384 442 37,000  Level Miami Center
09:48PM 21.6883 -70.4806 120° Southeast 384 442 37,000  Level Miami Center
09:49PM 21.6342 -70.3828 121° Southeast 384 442 37,000  Level Miami Center
09:50PM 21.5819 -70.2828 119° Southeast 384 442 37,000  Level Miami Center
09:51PM 21.5253 -70.1831 121° Southeast 384 442 37,000  Level Miami Center
09:52PM 21.4711 -70.0856 121° Southeast 384 442 37,000  Level Miami Center
09:53PM 21.4164 -69.9836 120° Southeast 389 448 37,000  Level Miami Center
09:54PM 21.3578 -69.8819 122° Southeast 390 449 37,000  Level Miami Center
09:55PM 21.3072 -69.7825 119° Southeast 390 449 37,000  Level Miami Center
09:56PM 21.2528 -69.6831 120° Southeast 390 449 37,000  Level Miami Center
09:57PM 21.2022 -69.5836 119° Southeast 390 449 37,000  Level Miami Center
09:58PM 21.1411 -69.4847 124° Southeast 390 449 37,000  Level Miami Center
09:59PM 21.0861 -69.3811 120° Southeast 390 449 37,000  Level Miami Center
10:00PM 21.0356 -69.2797 118° Southeast 390 449 37,000  Level Miami Center
10:01PM 20.9764 -69.1808 123° Southeast 390 449 37,000  Level Miami Center
10:02PM 20.9211 -69.0775 120° Southeast 390 449 37,000  Level Miami Center
10:03PM 20.8775 -68.9958 120° Southeast 390 449 37,000  Level Miami Center
10:04PM 20.8178 -68.8864 120° Southeast 390 449 37,000  Level Miami Center
10:05PM 20.7606 -68.7856 121° Southeast 390 449 37,000  Level Miami Center
10:06PM 20.7033 -68.6872 122° Southeast 390 449 37,000  Level Miami Center
10:07PM 20.6478 -68.5844 120° Southeast 390 449 37,000  Level Miami Center
10:08PM 20.5903 -68.4839 121° Southeast 390 449 37,000  Level Miami Center
10:09PM 20.5350 -68.3814 120° Southeast 390 449 37,000  Level Miami Center
10:10PM 20.4772 -68.2811 122° Southeast 390 449 37,000  Level Miami Center
10:11PM 20.4197 -68.1808 121° Southeast 390 449 37,000 -240 Level Miami Center
10:12PM 20.3644 -68.0831 121° Southeast 390 449 36,600 -480 Descending Miami Center
10:13PM 20.3064 -67.9764 120° Southeast 395 455 36,100 -540 Descending Miami Center
10:14PM 20.2461 -67.8722 122° Southeast 407 468 35,600 -540 Descending Miami Center
10:15PM 20.1939 -67.7611 117° Southeast 413 475 35,100 -360 Descending Miami Center
10:16PM 20.1167 -67.6667 131° Southeast 410 472 35,000 -60 Descending San Juan Center
10:17PM 20.0500 -67.5667 125° Southeast 400 460 35,000  Level San Juan Center
10:18PM 20.0000 -67.4500 115° Southeast 400 460 35,000  Level San Juan Center
10:19PM 19.9333 -67.3500 125° Southeast 390 449 35,000  Level San Juan Center
10:20PM 19.8667 -67.2333 121° Southeast 400 460 35,000  Level San Juan Center
10:23PM 19.7000 -66.9500 120° Southeast 390 449 35,000  Level San Juan Center
10:24PM 19.6500 -66.8500 118° Southeast 390 449 35,000  Level San Juan Center
10:25PM 19.5833 -66.7500 125° Southeast 390 449 35,000  Level San Juan Center
10:26PM 19.5333 -66.6500 118° Southeast 390 449 35,000  Level San Juan Center
10:27PM 19.4833 -66.5500 118° Southeast 390 449 35,000  Level San Juan Center
10:28PM 19.4167 -66.4500 125° Southeast 400 460 35,000  Level San Juan Center
10:29PM 19.4572 -66.4761 120° Southeast  Level FlightAware Approximate
10:29PM 19.3667 -66.3500 118° Southeast 390 449 35,000  Level San Juan Center
10:30PM 19.3000 -66.2500 125° Southeast 400 460 35,000  Level San Juan Center
10:31PM 19.2500 -66.1500 118° Southeast 400 460 35,000  Level San Juan Center
10:32PM 19.1833 -66.0500 125° Southeast 400 460 35,000  Level San Juan Center
10:33PM 19.1333 -65.9500 118° Southeast 390 449 35,000  Level San Juan Center
10:34PM 19.0667 -65.8500 125° Southeast 390 449 35,000 -180 Level San Juan Center
10:35PM 19.0167 -65.7500 118° Southeast 400 460 34,700 -420 Descending San Juan Center
10:36PM 18.9500 -65.6500 125° Southeast 410 472 34,200 -600 Descending San Juan Center
10:37PM 18.8833 -65.5500 125° Southeast 420 483 33,600 -600 Descending San Juan Center
10:38PM 18.8333 -65.4500 118° Southeast 420 483 33,100 -600 Descending San Juan Center
10:39PM 18.7667 -65.3333 121° Southeast 420 483 32,500 -780 Descending San Juan Center
10:40PM 18.7000 -65.2333 125° Southeast 420 483 31,600 -1,200 Descending San Juan Center
10:41PM 18.6500 -65.1333 118° Southeast 430 495 30,100 -1,560 Descending San Juan Center
10:42PM 18.5833 -65.0167 121° Southeast 420 483 28,500 -1,620 Descending San Juan Center
10:43PM 18.5167 -64.9167 125° Southeast 430 495 26,900 -1,560 Descending San Juan Center
10:44PM 18.4500 -64.8000 121° Southeast 420 483 25,400 -1,500 Descending San Juan Center
10:45PM 18.4000 -64.7167 122° Southeast 400 460 23,900 -1,500 Descending San Juan Center
10:46PM 18.3333 -64.6167 125° Southeast 390 449 22,400 -1,560 Descending San Juan Center
10:47PM 18.2667 -64.5167 125° Southeast 380 437 20,800 -1,560 Descending San Juan Center
10:48PM 18.2167 -64.4167 118° Southeast 370 426 19,300 -1,500 Descending San Juan Center
10:49PM 18.1667 -64.3333 122° Southeast 360 414 17,800 -1,500 Descending San Juan Center
10:50PM 18.1167 -64.2500 122° Southeast 350 403 16,400 -1,500 Descending San Juan Center
10:51PM 18.0667 -64.1667 122° Southeast 340 391 14,800 -1,380 Descending San Juan Center
10:52PM 18.0167 -64.0833 122° Southeast 330 380 13,700 -1,080 Descending San Juan Center
10:53PM 17.9667 -64.0000 122° Southeast 320 368 12,700 -960 Descending San Juan Center
10:54PM 17.9167 -63.9333 128° Southeast 320 368 11,800 -900 Descending San Juan Center
10:55PM 17.8667 -63.8500 122° Southeast 320 368 11,000 -840 Descending San Juan Center
10:56PM 17.8167 -63.7667 122° Southeast 310 357 10,200 -780 Descending San Juan Center
10:57PM 17.7667 -63.7000 128° Southeast 300 345 9,500 -780 Descending San Juan Center
10:58PM 17.7333 -63.6167 113° Southeast 290 334 8,700 -780 Descending San Juan Center
10:59PM 17.6833 -63.5500 128° Southeast 280 322 8,000 -780 Descending San Juan Center
11:00PM 17.6500 -63.5000 125° Southeast 260 299 7,200 -720 Descending San Juan Center
11:01PM 17.6000 -63.4333 128° Southeast 260 299 6,600 -600 Descending San Juan Center
11:02PM 17.5667 -63.3667 118° Southeast 260 299 6,000 -300 Descending San Juan Center
11:03PM 17.5333 -63.3000 118° Southeast 270 311 6,000  Level San Juan Center
11:04PM 17.5000 -63.2333 118° Southeast 260 299 6,000  Level San Juan Center
11:05PM 17.4500 -63.1667 128° Southeast 270 311 6,000  Level San Juan Center
11:06PM 17.4167 -63.1000 118° Southeast 270 311 6,000  Level San Juan Center
11:07PM 17.3667 -63.0333 128° Southeast 240 276 6,000  Level San Juan Center
11:08PM 17.3333 -62.9833 125° Southeast 240 276 6,000  Level San Juan Center
11:11PM 17.3189 -62.8655 98° East  Level FlightAware Approximate
11:18PM 17.3112 -62.7187 North  Level Estimated
11:19PM 17.3112 -62.7187 North  Level Estimated
11:20PM 17.3112 -62.7187 North  Level Estimated
11:21PM 17.3112 -62.7187 North  Level Estimated
11:22PM 17.3112 -62.7187 North  Level Estimated
11:23PM 17.3112 -62.7187 North  Level Estimated
11:24PM 17.3112 -62.7187 North  Level Estimated
11:25PM 17.3112 -62.7187 North  Level Estimated
11:26PM 17.3112 -62.7187 North  Level Estimated
11:27PM 17.3112 -62.7187 North  Level Estimated
11:28PM 17.3112 -62.7187 North  Level Estimated
11:29PM 17.3112 -62.7187 North  Level Estimated
11:30PM 17.3112 -62.7187 North  Level Estimated
11:31PM 17.3112 -62.7187 North  Level Estimated